Location: Muurame
(62.1259°N, 25.7019°E)
Time: 05:38:03
(UTC+03:00)

Iridium 24 - Pass Details

Date: 10 September 2015
Orbit: 751 x 766 km, 86.4° (Epoch: 23 May)

Event Time Altitude Azimuth Distance (km) Brightness Sun altitude
Rises 22:52:01 0° 352° (N) 3,250 9.8 -17.7°
Reaches altitude 10° 22:54:23 10° 356° (N) 2,321 8.8 -17.9°
Maximum altitude 22:59:33 65° 79° (ENE) 847 5.6 -18.3°
Enters shadow 23:01:43 35° 149° (SSE) 1,238 6.0 -18.4°
Drops below altitude 10° 23:04:42 10° 161° (SSE) 2,309 - -18.6°
Sets 23:07:03 0° 165° (SSE) 3,232 - -18.8°
